Hauptseite
METAR-TAF:

METAR-TAF

Flughäfen :

Prague, Tschechien

Breite: 50-12-59N, Länge: 014-23-42E, Höhe: 280 m

Beobachtung

Neuester Wetterbericht von vor 21 Stunden und 56 Minuten, um 10:00 UTC
Wind 15 kt aus West
Temperatur 16°C
Luftfeuchtigkeit 51%
Luftdruck 1021 hPa
Sichtweite 10 km oder mehr
Aufgelockert bewölkt in der Höhe von 3700 ft

METAR: LKVO 221000Z 26015KT 9999 SCT037 16/06 Q1021

Zeit: 09:56 (07:56 UTC)


TAF: fehlend

Wetterbeobachtungen und Prognosen von mehr als 4000 Flughäfen (METAR und TAF Bericht).

Die verfügbaren Stationen werden durch gelbe und rote Markierungen auf der Karte dargestellt.

Führen Sie die Maus auf sie, um den Namen der Station zu sehen.

Darauf klicken, um die Beobachtung von Wetterbeobachtungen und Prognosen zu sehen.

Um die Karte zu ändern : klicken Sie auf den grünen Tasten mit einem schwarzen Kreuz Zum Vergrößern, auf den grünen Button mit einem Gedankenstrich zu verkleinern, oder auf die grünen Pfeile für benachbarte Karten.


METAR-TAF: